Вернуться в каталог

ARIANE 44L DEB

АктивенHEO
NORAD 24741·DEBRIS·🇫🇷 France

Запущен Jan 15, 1991 с Guiana Space Centre

Loading…

Ближайшие Пролёты (ближайшие 24 часа)

TLE

СвежийSource: Space-Track

Эпоха: Sep 14, 2026, 14:14 UTC

1 24741U 91003H   26257.59347442 -.00000269  00000-0 -38939-2 0  9994
2 24741   6.4082 136.6978 6804826 296.9693 297.4991  2.65549829202115

Отслеживайте ARIANE 44L DEB в реальном времени с AllMySat

Download on the App Store